Stations météo

Publicité
Kasteli, Grèce (16760): Température de l'air & dewpoint: 15.04.2018 14:00:00 - 21.04.2018 14:00:00 (EEST)Kasteli, Grèce (16760): Vitesse du vent: 15.04.2018 14:00:00 - 21.04.2018 14:00:00 (EEST)Kasteli, Grèce (16760): Direction du vent: 15.04.2018 14:00:00 - 21.04.2018 14:00:00 (EEST)Kasteli, Grèce (16760): reduced air pressure: 15.04.2018 14:00:00 - 21.04.2018 14:00:00 (EEST)Kasteli, Grèce (16760): visibility: 15.04.2018 14:00:00 - 21.04.2018 14:00:00 (EEST)Kasteli, Grèce (16760): Quantités de précipitations: 15.04.2018 14:00:00 - 21.04.2018 14:00:00 (EEST)
Date & Time tt [°C] td [°C] ff [km/h] ff [knt] dd ppp [hPa] vv [km] rr [mm]
21.04.2018 14:00:00 - - - - - - - -
21.04.2018 13:00:00 - - - - - - - -
21.04.2018 12:00:00 14,4 8,5 29 16 NNW 1016,7 10 -
21.04.2018 11:00:00 - - - - - - - -
21.04.2018 10:00:00 - - - - - - - -
21.04.2018 09:00:00 13,6 8,0 31 17 N 1017,2 10 -
21.04.2018 08:00:00 - - - - - - - -
21.04.2018 07:00:00 - - - - - - - -
21.04.2018 06:00:00 13,4 8,8 21 11 N 1016,7 10 -
21.04.2018 05:00:00 - - - - - - - -
21.04.2018 04:00:00 - - - - - - - -
21.04.2018 03:00:00 14,0 9,6 26 14 NNE 1015,8 - 0,0
21.04.2018 02:00:00 - - - - - - - -
21.04.2018 01:00:00 - - - - - - - -
21.04.2018 00:00:00 15,8 12,7 18 10 NNE 1016,0 - -
20.04.2018 23:00:00 - - - - - - - -
20.04.2018 22:00:00 - - - - - - - -
20.04.2018 21:00:00 16,2 11,2 0 0 N 1015,1 10 -
20.04.2018 20:00:00 - - - - - - - -
20.04.2018 19:00:00 - - - - - - - -
20.04.2018 18:00:00 20,0 9,5 18 10 N 1013,7 10 -
20.04.2018 17:00:00 - - - - - - - -
20.04.2018 16:00:00 - - - - - - - -
20.04.2018 15:00:00 22,0 8,5 16 9 N 1013,9 10 -
20.04.2018 14:00:00 - - - - - - - -
20.04.2018 13:00:00 - - - - - - - -
20.04.2018 12:00:00 20,8 8,8 22 12 N 1015,2 10 -
20.04.2018 11:00:00 - - - - - - - -
20.04.2018 10:00:00 - - - - - - - -
20.04.2018 09:00:00 17,6 9,8 15 8 NNE 1016,0 10 -
20.04.2018 08:00:00 - - - - - - - -
20.04.2018 07:00:00 - - - - - - - -
20.04.2018 06:00:00 14,8 9,8 13 7 NNE 1016,8 10 -
20.04.2018 05:00:00 - - - - - - - -
20.04.2018 04:00:00 - - - - - - - -
20.04.2018 03:00:00 13,8 8,7 13 7 NE 1017,6 10 -
20.04.2018 02:00:00 - - - - - - - -
20.04.2018 01:00:00 - - - - - - - -
20.04.2018 00:00:00 12,8 9,3 9 5 N 1018,7 - -
19.04.2018 23:00:00 - - - - - - - -
19.04.2018 22:00:00 - - - - - - - -
19.04.2018 21:00:00 14,4 12,1 13 7 NE 1018,9 10 -
19.04.2018 20:00:00 - - - - - - - -
19.04.2018 19:00:00 - - - - - - - -
19.04.2018 18:00:00 18,4 8,9 16 9 N 1018,7 10 -
19.04.2018 17:00:00 - - - - - - - -
19.04.2018 16:00:00 - - - - - - - -
19.04.2018 15:00:00 18,6 10,7 22 12 NNE 1019,2 10 -
19.04.2018 14:00:00 - - - - - - - -
19.04.2018 13:00:00 - - - - - - - -
19.04.2018 12:00:00 19,8 9,0 16 9 NNE 1019,9 10 -
19.04.2018 11:00:00 - - - - - - - -
19.04.2018 10:00:00 - - - - - - - -
19.04.2018 09:00:00 16,0 12,0 13 7 NE 1021,0 8 -
19.04.2018 08:00:00 - - - - - - - -
19.04.2018 07:00:00 - - - - - - - -
19.04.2018 06:00:00 13,8 11,7 8 4 NE 1020,7 8 -
19.04.2018 05:00:00 - - - - - - - -
19.04.2018 04:00:00 - - - - - - - -
19.04.2018 03:00:00 12,6 10,4 0 0 N 1020,9 8 -
19.04.2018 02:00:00 - - - - - - - -
19.04.2018 01:00:00 - - - - - - - -
19.04.2018 00:00:00 13,2 11,4 5 3 NNE 1021,4 - -
18.04.2018 23:00:00 - - - - - - - -
18.04.2018 22:00:00 - - - - - - - -
18.04.2018 21:00:00 14,6 13,9 8 4 N 1021,1 7 -
18.04.2018 20:00:00 - - - - - - - -
18.04.2018 19:00:00 - - - - - - - -
18.04.2018 18:00:00 19,2 13,3 15 8 N 1020,0 10 -
18.04.2018 17:00:00 - - - - - - - -
18.04.2018 16:00:00 - - - - - - - -
18.04.2018 15:00:00 20,8 12,5 11 6 N 1020,1 10 -
18.04.2018 14:00:00 - - - - - - - -
18.04.2018 13:00:00 - - - - - - - -
18.04.2018 12:00:00 16,8 13,3 0 0 N 1020,9 7 -
18.04.2018 11:00:00 - - - - - - - -
18.04.2018 10:00:00 - - - - - - - -
18.04.2018 09:00:00 15,0 13,6 11 6 N 1020,2 6 -
18.04.2018 08:00:00 - - - - - - - -
18.04.2018 07:00:00 - - - - - - - -
18.04.2018 06:00:00 9,8 9,5 0 0 N 1020,2 3,0 -
18.04.2018 05:00:00 - - - - - - - -
18.04.2018 04:00:00 - - - - - - - -
18.04.2018 03:00:00 11,6 10,9 0 0 N 1019,6 8 -
18.04.2018 02:00:00 - - - - - - - -
18.04.2018 01:00:00 - - - - - - - -
18.04.2018 00:00:00 15,2 13,4 8 4 N 1019,2 - -
17.04.2018 23:00:00 - - - - - - - -
17.04.2018 22:00:00 - - - - - - - -
17.04.2018 21:00:00 15,4 13,4 9 5 NNE 1018,4 6 -
17.04.2018 20:00:00 - - - - - - - -
17.04.2018 19:00:00 - - - - - - - -
17.04.2018 18:00:00 17,6 13,5 9 5 N 1017,2 6 -
17.04.2018 17:00:00 - - - - - - - -
17.04.2018 16:00:00 - - - - - - - -
17.04.2018 15:00:00 19,8 13,8 13 7 NNW 1016,8 6 -
17.04.2018 14:00:00 - - - - - - - -
17.04.2018 13:00:00 - - - - - - - -
17.04.2018 12:00:00 21,0 10,6 5 3 N 1016,7 7 -
17.04.2018 11:00:00 - - - - - - - -
17.04.2018 10:00:00 - - - - - - - -
17.04.2018 09:00:00 17,0 9,9 13 7 NNE 1016,9 8 -
17.04.2018 08:00:00 - - - - - - - -
17.04.2018 07:00:00 - - - - - - - -
17.04.2018 06:00:00 14,2 8,9 0 0 N 1016,5 10 -
17.04.2018 05:00:00 - - - - - - - -
17.04.2018 04:00:00 - - - - - - - -
17.04.2018 03:00:00 15,0 10,4 0 0 N 1016,0 10 -
17.04.2018 02:00:00 - - - - - - - -
17.04.2018 01:00:00 - - - - - - - -
17.04.2018 00:00:00 16,2 14,8 9 5 NE 1015,9 - -
16.04.2018 23:00:00 - - - - - - - -
16.04.2018 22:00:00 - - - - - - - -
16.04.2018 21:00:00 19,6 12,3 0 0 N 1013,9 10 -
16.04.2018 20:00:00 - - - - - - - -
16.04.2018 19:00:00 - - - - - - - -
16.04.2018 18:00:00 22,8 9,6 22 12 SSW 1012,3 10 -
16.04.2018 17:00:00 - - - - - - - -
16.04.2018 16:00:00 - - - - - - - -
16.04.2018 15:00:00 29,8 7,4 0 0 N 1010,5 10 -
16.04.2018 14:00:00 - - - - - - - -
16.04.2018 13:00:00 - - - - - - - -
16.04.2018 12:00:00 27,6 6,3 16 9 S 1013,9 10 -
16.04.2018 11:00:00 - - - - - - - -
16.04.2018 10:00:00 - - - - - - - -
16.04.2018 09:00:00 22,2 10,1 9 5 ESE 1013,4 10 -
16.04.2018 08:00:00 - - - - - - - -
16.04.2018 07:00:00 - - - - - - - -
16.04.2018 06:00:00 20,8 7,0 15 8 SW 1012,6 10 -
16.04.2018 05:00:00 - - - - - - - -
16.04.2018 04:00:00 - - - - - - - -
16.04.2018 03:00:00 17,4 10,7 0 0 N 1012,9 10 -
16.04.2018 02:00:00 - - - - - - - -
16.04.2018 01:00:00 - - - - - - - -
16.04.2018 00:00:00 18,6 12,2 4 2 N 1014,9 - -
15.04.2018 23:00:00 - - - - - - - -
15.04.2018 22:00:00 - - - - - - - -
15.04.2018 21:00:00 17,8 12,2 0 0 N 1015,2 10 -
15.04.2018 20:00:00 - - - - - - - -
15.04.2018 19:00:00 - - - - - - - -
15.04.2018 18:00:00 24,2 10,9 9 5 N 1014,3 9 -
15.04.2018 17:00:00 - - - - - - - -
15.04.2018 16:00:00 - - - - - - - -
15.04.2018 15:00:00 25,2 13,4 15 8 N 1015,1 9 -
15.04.2018 14:00:00 - - - - - - - -

tt = Température de l'air
td = dewpoint
ff = Vitesse du vent
dd = Direction du vent
ppp = reduced air pressure
vv = visibility
rr = Quantités de précipitations

stations d'obs. à proximité